This is the latest recevied weather packets stored in our database for station/object SV9TNF-51. If no packets are shown the sender has not sent any weather packets the latest 10 day(s).
| Time | Temp. | Humidity | Pressure | Rain* | Wind** | Luminosity | Snow |
|---|---|---|---|---|---|---|---|
| 1788040622 | 25.56° C | 55% | 1013.2 hPa | 0 mm | 0.45 m/s, 125° | - | - |
| 1788040322 | 25.56° C | 54% | 1013.2 hPa | 0 mm | 1.79 m/s, 76° | - | - |
| 1788040022 | 25.56° C | 54% | 1013.2 hPa | 0 mm | 0 m/s | - | - |
| 1788039722 | 25.56° C | 53% | 1013.2 hPa | 0 mm | 0 m/s | - | - |
| 1788039422 | 25.56° C | 53% | 1013.2 hPa | 0 mm | 1.34 m/s, 123° | - | - |
| 1788039122 | 25.56° C | 52% | 1013.2 hPa | 0 mm | 0.89 m/s, 112° | - | - |
| 1788038822 | 25.56° C | 52% | 1013.2 hPa | 0 mm | 4.47 m/s, 62° | - | - |
| 1788038522 | 25.56° C | 51% | 1013.2 hPa | 0 mm | 1.34 m/s, 103° | - | - |
| 1788038221 | 25.56° C | 51% | 1013.2 hPa | 0 mm | 1.79 m/s, 99° | - | - |
| 1788037921 | 26.11° C | 51% | 1013.2 hPa | 0 mm | 0 m/s | - | - |
| 1788037621 | 26.11° C | 51% | 1013.2 hPa | 0 mm | 1.79 m/s, 115° | - | - |
| 1788037321 | 26.11° C | 51% | 1013.2 hPa | 0 mm | 0.89 m/s, 138° | - | - |
| 1788037021 | 26.11° C | 51% | 1013.2 hPa | 0 mm | 1.79 m/s, 106° | - | - |
| 1788036721 | 26.11° C | 51% | 1013.2 hPa | 0 mm | 0 m/s | - | - |
| 1788036420 | 26.11° C | 52% | 1013.2 hPa | 0 mm | 0 m/s | - | - |
| 1788036121 | 26.11° C | 52% | 1013.2 hPa | 0 mm | 0.89 m/s, 127° | - | - |
| 1788035822 | 26.11° C | 52% | 1013.2 hPa | 0 mm | 1.34 m/s, 110° | - | - |
| 1788035520 | 26.11° C | 51% | 1013.6 hPa | 0 mm | 1.34 m/s, 96° | - | - |
| 1788035220 | 26.11° C | 51% | 1013.6 hPa | 0 mm | 1.34 m/s, 120° | - | - |
| 1788034920 | 26.11° C | 51% | 1013.9 hPa | 0 mm | 1.34 m/s, 118° | - | - |
| 1788034620 | 26.11° C | 52% | 1013.9 hPa | 0 mm | 1.79 m/s, 99° | - | - |
| 1788034320 | 26.11° C | 52% | 1013.9 hPa | 0 mm | 0 m/s | - | - |
| 1788034020 | 26.11° C | 52% | 1013.9 hPa | 0 mm | 1.34 m/s, 117° | - | - |
| 1788033720 | 26.11° C | 51% | 1013.9 hPa | 0 mm | 0.89 m/s, 130° | - | - |
| 1788033419 | 26.11° C | 51% | 1013.9 hPa | 0 mm | 0 m/s | - | - |
* Rain latest hour (hover to see other rain measurements)
** Current wind speed in m/s (hover to see current wind gust speed)